TimePDT,TemperatureF,Dew PointF,Humidity,Sea Level PressureIn,VisibilityMPH,Wind Direction,Wind SpeedMPH,Gust SpeedMPH,PrecipitationIn,Events,Conditions,WindDirDegrees,DateUTC
12:53 AM,70.0,57.9,65,29.93,10.0,Calm,Calm,-,N/A,,Clear,0,2013-09-12 07:53:00
1:53 AM,69.1,57.9,68,29.92,10.0,NW,3.5,-,N/A,,Clear,320,2013-09-12 08:53:00
2:53 AM,69.1,57.9,68,29.91,9.0,Calm,Calm,-,N/A,,Clear,0,2013-09-12 09:53:00
3:53 AM,68.0,57.9,70,29.90,8.0,Calm,Calm,-,N/A,,Clear,0,2013-09-12 10:53:00
4:53 AM,66.9,57.9,73,29.90,8.0,Calm,Calm,-,N/A,,Clear,0,2013-09-12 11:53:00
5:53 AM,66.9,57.9,73,29.91,8.0,Calm,Calm,-,N/A,,Partly Cloudy,0,2013-09-12 12:53:00
6:53 AM,68.0,59.0,73,29.92,5.0,Variable,3.5,-,N/A,,Haze,0,2013-09-12 13:53:00
7:53 AM,69.1,59.0,70,29.93,5.0,Calm,Calm,-,N/A,,Haze,0,2013-09-12 14:53:00
8:53 AM,72.0,59.0,64,29.93,5.0,Calm,Calm,-,N/A,,Haze,0,2013-09-12 15:53:00
9:53 AM,75.9,59.0,56,29.93,5.0,Calm,Calm,-,N/A,,Haze,0,2013-09-12 16:53:00
10:53 AM,81.0,59.0,47,29.92,8.0,Variable,4.6,-,N/A,,Partly Cloudy,0,2013-09-12 17:53:00
11:53 AM,81.0,61.0,50,29.90,9.0,WSW,6.9,-,N/A,,Scattered Clouds,240,2013-09-12 18:53:00
12:53 PM,80.1,61.0,52,29.88,10.0,West,4.6,-,N/A,,Partly Cloudy,280,2013-09-12 19:53:00
1:53 PM,81.0,61.0,50,29.86,10.0,SW,6.9,-,N/A,,Clear,230,2013-09-12 20:53:00
2:53 PM,81.0,61.0,50,29.84,10.0,SW,9.2,-,N/A,,Partly Cloudy,220,2013-09-12 21:53:00
3:53 PM,82.9,59.0,44,29.83,10.0,SW,8.1,-,N/A,,Clear,230,2013-09-12 22:53:00
4:53 PM,82.0,59.0,45,29.82,10.0,WSW,8.1,-,N/A,,Clear,250,2013-09-12 23:53:00
5:53 PM,79.0,57.9,48,29.82,10.0,West,5.8,-,N/A,,Clear,260,2013-09-13 00:53:00
6:53 PM,77.0,60.1,56,29.82,10.0,SW,5.8,-,N/A,,Clear,230,2013-09-13 01:53:00
7:53 PM,73.0,60.1,64,29.82,10.0,Calm,Calm,-,N/A,,Clear,0,2013-09-13 02:53:00
8:53 PM,72.0,60.1,66,29.83,10.0,Calm,Calm,-,N/A,,Clear,0,2013-09-13 03:53:00
9:53 PM,73.0,60.1,64,29.84,10.0,WSW,3.5,-,N/A,,Clear,240,2013-09-13 04:53:00
10:53 PM,71.1,60.1,68,29.84,10.0,Calm,Calm,-,N/A,,Clear,0,2013-09-13 05:53:00
11:53 PM,69.1,60.1,73,29.84,10.0,SSW,3.5,-,N/A,,Clear,210,2013-09-13 06:53:00